EN

Hourly Weather Bolshoe Shapovo

Today, 24 November, Tuesday

Time Temperature Precipitation Wind Pressure Humidity
00:00 0°C° 0.1 mm 4 mps 746 mmHg 97%
01:00 0°C° 0.1 mm 4 mps 746 mmHg 97%
02:00 0°C° 0.1 mm 4 mps 746 mmHg 97%
03:00 0°C° 0.1 mm 4 mps 746 mmHg 97%
04:00 0°C° 0.1 mm 4 mps 746 mmHg 97%
05:00 0°C° 0.1 mm 4 mps 746 mmHg 97%
06:00 0°C° 0.1 mm 4 mps 745 mmHg 97%
07:00 +1°C° 0.1 mm 3 mps 745 mmHg 98%
08:00 0°C° 0.1 mm 3 mps 745 mmHg 98%
09:00 0°C° 0.1 mm 3 mps 745 mmHg 98%
10:00 +1°C° 0 mm 3 mps 745 mmHg 98%
11:00 +1°C° 0 mm 3 mps 745 mmHg 98%
12:00 +1°C° 0 mm 3 mps 745 mmHg 97%
13:00 +1°C° 0.1 mm 3 mps 745 mmHg 98%
14:00 +1°C° 0.1 mm 3 mps 745 mmHg 98%
15:00 +1°C° 0.1 mm 2 mps 745 mmHg 98%
16:00 +1°C° 0.1 mm 2 mps 745 mmHg 98%
17:00 +1°C° 0.1 mm 2 mps 745 mmHg 98%
18:00 +1°C° 0.1 mm 2 mps 745 mmHg 98%
19:00 +1°C° 0 mm 2 mps 746 mmHg 98%
20:00 +1°C° 0 mm 2 mps 746 mmHg 98%
21:00 +1°C° 0 mm 2 mps 746 mmHg 97%
22:00 -1°C° 0 mm 2 mps 746 mmHg 97%
23:00 -1°C° 0 mm 2 mps 746 mmHg 97%

Tomorrow, 25 November, Wednesday

Time Temperature Precipitation Wind Pressure Humidity
00:00 -1°C° 0 mm 2 mps 746 mmHg 97%
01:00 -1°C° 0.1 mm 2 mps 746 mmHg 97%
02:00 -1°C° 0.1 mm 2 mps 747 mmHg 97%
03:00 -1°C° 0.1 mm 2 mps 747 mmHg 98%
04:00 -1°C° 0.2 mm 3 mps 747 mmHg 97%
05:00 -1°C° 0.2 mm 3 mps 747 mmHg 96%
06:00 -2°C° 0.2 mm 4 mps 747 mmHg 96%
07:00 -2°C° 0.1 mm 3 mps 748 mmHg 95%
08:00 -2°C° 0.1 mm 3 mps 748 mmHg 95%
09:00 -2°C° 0.1 mm 3 mps 749 mmHg 94%
10:00 -2°C° 0 mm 3 mps 749 mmHg 93%
11:00 -2°C° 0 mm 3 mps 749 mmHg 92%
12:00 -1°C° 0 mm 3 mps 749 mmHg 91%
13:00 -1°C° 0 mm 3 mps 750 mmHg 91%
14:00 -1°C° 0 mm 3 mps 750 mmHg 91%
15:00 -1°C° 0 mm 3 mps 751 mmHg 91%
16:00 -1°C° 0 mm 3 mps 751 mmHg 91%
17:00 -1°C° 0 mm 2 mps 751 mmHg 91%
18:00 -1°C° 0 mm 2 mps 751 mmHg 90%
19:00 -1°C° 0 mm 2 mps 751 mmHg 92%
20:00 -2°C° 0 mm 2 mps 752 mmHg 93%
21:00 -2°C° 0 mm 2 mps 752 mmHg 94%
22:00 -2°C° 0 mm 2 mps 752 mmHg 94%
23:00 -2°C° 0 mm 2 mps 752 mmHg 94%

Day after tomorrow, 26 November, Thursday

Time Temperature Precipitation Wind Pressure Humidity
00:00 -2°C° 0 mm 2 mps 752 mmHg 95%
01:00 -2°C° 0 mm 2 mps 752 mmHg 94%
02:00 -2°C° 0 mm 2 mps 753 mmHg 94%
03:00 -2°C° 0 mm 2 mps 753 mmHg 93%
04:00 0°C° 0 mm 1 mps 753 mmHg 92%
05:00 0°C° 0 mm 1 mps 753 mmHg 91%
06:00 -1°C° 0 mm 1 mps 753 mmHg 91%
07:00 -1°C° 0 mm 1 mps 753 mmHg 91%
08:00 -1°C° 0 mm 1 mps 753 mmHg 90%
09:00 -1°C° 0 mm 1 mps 753 mmHg 90%
10:00 -3°C° 0 mm 2 mps 753 mmHg 88%
11:00 -2°C° 0 mm 2 mps 752 mmHg 85%
12:00 -2°C° 0 mm 3 mps 752 mmHg 83%
13:00 -2°C° 0 mm 3 mps 752 mmHg 83%
14:00 -3°C° 0 mm 4 mps 751 mmHg 84%
15:00 -3°C° 0 mm 4 mps 751 mmHg 84%
16:00 -3°C° 0.1 mm 4 mps 751 mmHg 87%
17:00 -3°C° 0.1 mm 4 mps 750 mmHg 90%
18:00 -2°C° 0.1 mm 4 mps 749 mmHg 93%
19:00 -2°C° 0.5 mm 4 mps 749 mmHg 94%
20:00 -1°C° 0.5 mm 4 mps 749 mmHg 96%
21:00 -1°C° 0.5 mm 4 mps 749 mmHg 97%
22:00 0°C° 0.3 mm 4 mps 748 mmHg 96%
23:00 0°C° 0.3 mm 4 mps 748 mmHg 96%

27 November, Friday

Time Temperature Precipitation Wind Pressure Humidity
00:00 0°C° 0.3 mm 4 mps 747 mmHg 96%
01:00 0°C° 0 mm 4 mps 747 mmHg 95%
02:00 -1°C° 0 mm 4 mps 747 mmHg 93%
03:00 -1°C° 0 mm 5 mps 746 mmHg 91%
04:00 -1°C° 0 mm 5 mps 746 mmHg 91%
05:00 -2°C° 0 mm 5 mps 746 mmHg 90%
06:00 -2°C° 0 mm 5 mps 746 mmHg 89%
07:00 -2°C° 0 mm 4 mps 746 mmHg 89%
08:00 -2°C° 0 mm 4 mps 746 mmHg 89%
09:00 -2°C° 0 mm 4 mps 746 mmHg 89%
10:00 -2°C° 0 mm 4 mps 746 mmHg 89%
11:00 -1°C° 0 mm 4 mps 746 mmHg 89%
12:00 -1°C° 0 mm 4 mps 746 mmHg 88%
13:00 -1°C° 0 mm 4 mps 746 mmHg 90%
14:00 -1°C° 0 mm 4 mps 746 mmHg 91%
15:00 0°C° 0 mm 3 mps 746 mmHg 92%
16:00 0°C° 0 mm 3 mps 746 mmHg 93%
17:00 -1°C° 0 mm 3 mps 746 mmHg 94%
18:00 -1°C° 0 mm 3 mps 747 mmHg 96%
19:00 -1°C° 0.2 mm 2 mps 747 mmHg 96%
20:00 -1°C° 0.2 mm 2 mps 747 mmHg 97%
21:00 -1°C° 0.2 mm 2 mps 748 mmHg 98%
22:00 -1°C° 0 mm 2 mps 748 mmHg 98%
23:00 -1°C° 0 mm 2 mps 748 mmHg 97%

28 November, Saturday

Time Temperature Precipitation Wind Pressure Humidity
00:00 -1°C° 0 mm 2 mps 749 mmHg 97%
01:00 -1°C° 0.1 mm 2 mps 749 mmHg 97%
02:00 +1°C° 0.1 mm 2 mps 749 mmHg 98%
03:00 +2°C° 0.1 mm 1 mps 750 mmHg 98%
04:00 +2°C° 0 mm 1 mps 750 mmHg 98%
05:00 +2°C° 0 mm 1 mps 751 mmHg 98%
06:00 +2°C° 0 mm 1 mps 751 mmHg 98%
07:00 +2°C° 0 mm 1 mps 752 mmHg 98%
08:00 +2°C° 0 mm 1 mps 752 mmHg 98%
09:00 +2°C° 0 mm 1 mps 752 mmHg 97%
10:00 +2°C° 0 mm 1 mps 753 mmHg 98%
11:00 +2°C° 0 mm 1 mps 753 mmHg 98%
12:00 +2°C° 0 mm 1 mps 754 mmHg 98%
13:00 +2°C° 0 mm 1 mps 754 mmHg 98%
14:00 +2°C° 0 mm 1 mps 755 mmHg 98%
15:00 +2°C° 0 mm 1 mps 755 mmHg 97%
16:00 +2°C° 0 mm 1 mps 755 mmHg 97%
17:00 +2°C° 0 mm 1 mps 756 mmHg 97%
18:00 +2°C° 0 mm 1 mps 756 mmHg 96%
19:00 +2°C° 0 mm 1 mps 757 mmHg 96%
20:00 +2°C° 0 mm 1 mps 757 mmHg 96%
21:00 +1°C° 0 mm 2 mps 757 mmHg 96%
22:00 +1°C° 0 mm 1 mps 758 mmHg 96%
23:00 +1°C° 0 mm 1 mps 758 mmHg 95%

29 November, Sunday

Time Temperature Precipitation Wind Pressure Humidity
00:00 +1°C° 0 mm 1 mps 758 mmHg 95%
01:00 -1°C° 0 mm 2 mps 758 mmHg 95%
02:00 -1°C° 0 mm 2 mps 759 mmHg 95%
03:00 -1°C° 0 mm 2 mps 759 mmHg 94%
04:00 -1°C° 0 mm 2 mps 759 mmHg 94%
05:00 -1°C° 0 mm 2 mps 759 mmHg 94%
06:00 -1°C° 0 mm 2 mps 759 mmHg 94%
07:00 -1°C° 0.3 mm 2 mps 759 mmHg 95%
08:00 -1°C° 0.3 mm 3 mps 760 mmHg 96%
09:00 -2°C° 0.3 mm 3 mps 760 mmHg 97%
10:00 -1°C° 0.2 mm 3 mps 760 mmHg 96%
11:00 -1°C° 0.2 mm 3 mps 760 mmHg 96%
12:00 -1°C° 0.2 mm 3 mps 761 mmHg 95%
13:00 -1°C° 0.3 mm 3 mps 761 mmHg 95%
14:00 -1°C° 0.3 mm 3 mps 761 mmHg 95%
15:00 -1°C° 0.3 mm 3 mps 761 mmHg 96%
16:00 -2°C° 0.2 mm 3 mps 761 mmHg 95%
17:00 -2°C° 0.2 mm 3 mps 762 mmHg 95%
18:00 -4°C° 0.2 mm 3 mps 762 mmHg 94%
19:00 -4°C° 0 mm 3 mps 762 mmHg 93%
20:00 -5°C° 0 mm 3 mps 763 mmHg 93%
21:00 -5°C° 0 mm 3 mps 763 mmHg 92%
22:00 -5°C° 0 mm 3 mps 763 mmHg 91%
23:00 -6°C° 0 mm 3 mps 764 mmHg 91%
Show more